Weather History for St. Paul Lake Elmo, MN

Change the Weather History Date:

Sunday, March 16, 2014

  Actual Average (KSTP) Record (KSTP)
Temperature  
Mean Temperature 17 °F -  
Max Temperature 26 °F 37 °F 80 °F (2012)
Min Temperature 8 °F 21 °F 3 °F (1997)
Degree Days  
Heating Degree Days 48    
Moisture  
Dew Point 5 °F    
Average Humidity 56    
Maximum Humidity 67    
Minimum Humidity 37    
Precipitation  
Precipitation 0.00 in - - ()
Sea Level Pressure  
Sea Level Pressure 30.35 in    
Wind  
Wind Speed 7 mph (ESE)    
Max Wind Speed 13 mph    
Max Gust Speed 16 mph    
Visibility 10 miles    
Events      
Averages and records for this station are not official NWS values.
T = Trace of Precipitation, MM = Missing Value Source: NWS Daily Summary

Daily Weather History Graph

Daily Weather History Graph

Search for Another Location

Airport:

Trip Planner

Search our weather history database for the weather conditions in past years. The results will help you decide how hot, cold, wet, or windy it might be!

Date:

Astronomy

Mar. 16, 2014 Rise Set
Actual Time 7:21 AM CDT 7:18 PM CDT
Civil Twilight 6:52 AM CDT 7:48 PM CDT
Nautical Twilight 6:18 AM CDT 8:22 PM CDT
Astronomical Twilight 5:43 AM CDT 8:57 PM CDT
Moon 7:39 PM CDT (3/16) 7:04 AM CDT (3/16)
Length of Visible Light 12h 55m
Length of Day
11h 56m
Full, 100% of the Moon is Illuminated
Mar 16
Full
Mar 16
Full
Mar 23
Last Quarter
Mar 30
New
Apr 7
First Quarter

Hourly Weather History & Observations

Time (CDT) Temp. Windchill Dew Point Humidity Pressure Visibility Wind Dir Wind Speed Gust Speed Precip Events Conditions
12:11 AM 19.4 °F 7.9 °F 8.6 °F 63% 30.42 in 10.0 mi ENE 10.4 mph - N/A   Clear
12:31 AM 19.4 °F 6.6 °F 8.6 °F 63% 30.43 in 10.0 mi ENE 12.7 mph - N/A   Clear
12:51 AM 19.4 °F 8.6 °F 6.8 °F 58% 30.44 in 10.0 mi NE 9.2 mph - N/A   Clear
1:11 AM 17.6 °F 8.2 °F 6.8 °F 63% 30.44 in 10.0 mi NE 6.9 mph - N/A   Clear
1:31 AM 17.6 °F 5.0 °F 6.8 °F 63% 30.45 in 10.0 mi ENE 11.5 mph - N/A   Clear
1:51 AM 17.6 °F 6.4 °F 5.0 °F 58% 30.46 in 10.0 mi ENE 9.2 mph - N/A   Clear
2:11 AM 17.6 °F 6.4 °F 3.2 °F 53% 30.46 in 10.0 mi ENE 9.2 mph - N/A   Clear
2:31 AM 15.8 °F 7.2 °F 3.2 °F 58% 30.48 in 10.0 mi ENE 5.8 mph - N/A   Clear
2:51 AM 15.8 °F 7.2 °F 3.2 °F 58% 30.48 in 10.0 mi NE 5.8 mph - N/A   Clear
3:11 AM 14.0 °F 5.1 °F 3.2 °F 62% 30.48 in 10.0 mi NE 5.8 mph - N/A   Clear
3:31 AM 14.0 °F 6.5 °F 1.4 °F 57% 30.48 in 10.0 mi NE 4.6 mph - N/A   Clear
3:51 AM 14.0 °F 6.5 °F 1.4 °F 57% 30.48 in 10.0 mi NNE 4.6 mph - N/A   Clear
4:11 AM 14.0 °F 6.5 °F 1.4 °F 57% 30.48 in 10.0 mi NNE 4.6 mph - N/A   Clear
4:31 AM 12.2 °F 4.3 °F 1.4 °F 62% 30.48 in 10.0 mi NNE 4.6 mph - N/A   Clear
4:51 AM 12.2 °F 4.3 °F 1.4 °F 62% 30.48 in 10.0 mi NE 4.6 mph - N/A   Clear
5:11 AM 12.2 °F 2.9 °F 1.4 °F 62% 30.48 in 10.0 mi NE 5.8 mph - N/A   Clear
5:31 AM 10.4 °F 0.8 °F 1.4 °F 67% 30.48 in 10.0 mi NE 5.8 mph - N/A   Clear
5:51 AM 10.4 °F -0.4 °F 1.4 °F 67% 30.48 in 10.0 mi ENE 6.9 mph - N/A   Clear
6:11 AM 10.4 °F 0.8 °F 1.4 °F 67% 30.47 in 10.0 mi NE 5.8 mph - N/A   Clear
6:31 AM 10.4 °F 2.2 °F -0.4 °F 62% 30.47 in 10.0 mi NE 4.6 mph - N/A   Clear
6:51 AM 10.4 °F 4.0 °F -0.4 °F 62% 30.47 in 10.0 mi NE 3.5 mph - N/A   Clear
7:11 AM 10.4 °F 4.0 °F -0.4 °F 62% 30.47 in 10.0 mi NE 3.5 mph - N/A   Clear
7:31 AM 8.6 °F 0.1 °F -0.4 °F 67% 30.47 in 10.0 mi ENE 4.6 mph - N/A   Clear
7:51 AM 8.6 °F 2.0 °F -0.4 °F 67% 30.48 in 10.0 mi NE 3.5 mph - N/A   Clear
8:11 AM 10.4 °F 4.0 °F -0.4 °F 62% 30.48 in 10.0 mi ENE 3.5 mph - N/A   Clear
8:31 AM 10.4 °F 0.8 °F -0.4 °F 62% 30.49 in 10.0 mi East 5.8 mph - N/A   Clear
8:51 AM 12.2 °F 2.9 °F -0.4 °F 57% 30.49 in 10.0 mi East 5.8 mph - N/A   Clear
9:11 AM 12.2 °F -0.2 °F -0.4 °F 57% 30.49 in 10.0 mi East 9.2 mph - N/A   Clear
9:31 AM 12.2 °F 4.3 °F 1.4 °F 62% 30.50 in 10.0 mi East 4.6 mph - N/A   Clear
9:51 AM 14.0 °F 5.1 °F -0.4 °F 53% 30.49 in 10.0 mi East 5.8 mph - N/A   Clear
10:11 AM 14.0 °F 2.9 °F 1.4 °F 57% 30.48 in 10.0 mi East 8.1 mph - N/A   Clear
10:31 AM 15.8 °F 6.1 °F 1.4 °F 53% 30.47 in 10.0 mi East 6.9 mph - N/A   Clear
10:51 AM 17.6 °F 9.3 °F 1.4 °F 49% 30.48 in 10.0 mi East 5.8 mph - N/A   Clear
11:11 AM 17.6 °F 8.2 °F 1.4 °F 49% 30.48 in 10.0 mi SE 6.9 mph - N/A   Clear
11:31 AM 17.6 °F 9.3 °F 3.2 °F 53% 30.46 in 10.0 mi East 5.8 mph - N/A   Clear
11:51 AM 17.6 °F 12.3 °F 3.2 °F 53% 30.45 in 10.0 mi East 3.5 mph - N/A   Clear
12:11 PM 19.4 °F 11.5 °F 3.2 °F 49% 30.44 in 10.0 mi East 5.8 mph - N/A   Clear
12:31 PM 19.4 °F 10.4 °F 5.0 °F 54% 30.41 in 10.0 mi ESE 6.9 mph - N/A   Clear
12:51 PM 21.2 °F 14.9 °F 5.0 °F 50% 30.42 in 10.0 mi SSE 4.6 mph - N/A   Clear
1:11 PM 21.2 °F 16.4 °F 5.0 °F 50% 30.41 in 10.0 mi East 3.5 mph - N/A   Clear
1:31 PM 23.0 °F 15.8 °F 5.0 °F 46% 30.39 in 10.0 mi East 5.8 mph - N/A   Clear
1:51 PM 23.0 °F 17.0 °F 5.0 °F 46% 30.37 in 10.0 mi East 4.6 mph - N/A   Clear
2:11 PM 23.0 °F 13.9 °F 5.0 °F 46% 30.35 in 10.0 mi East 8.1 mph - N/A   Clear
2:31 PM 24.8 °F 19.1 °F 5.0 °F 43% 30.35 in 10.0 mi East 4.6 mph - N/A   Clear
2:51 PM 24.8 °F 17.9 °F 5.0 °F 43% 30.34 in 10.0 mi SE 5.8 mph - N/A   Clear
3:11 PM 26.6 °F 21.2 °F 5.0 °F 40% 30.32 in 10.0 mi ESE 4.6 mph - N/A   Clear
3:31 PM 24.8 °F 19.1 °F 3.2 °F 40% 30.31 in 10.0 mi SSE 4.6 mph - N/A   Clear
3:51 PM 26.6 °F - 3.2 °F 37% 30.31 in 10.0 mi Calm Calm - N/A   Clear
4:11 PM 24.8 °F 20.5 °F 5.0 °F 43% 30.30 in 10.0 mi SSW 3.5 mph - N/A   Clear
4:31 PM 24.8 °F 20.5 °F 6.8 °F 46% 30.30 in 10.0 mi SSW 3.5 mph - N/A   Clear
4:51 PM 24.8 °F 19.1 °F 6.8 °F 46% 30.29 in 10.0 mi South 4.6 mph - N/A   Clear
5:11 PM 24.8 °F 17.9 °F 6.8 °F 46% 30.27 in 10.0 mi South 5.8 mph - N/A   Clear
5:31 PM 24.8 °F 16.9 °F 8.6 °F 50% 30.27 in 10.0 mi SSE 6.9 mph - N/A   Clear
5:51 PM 24.8 °F 19.1 °F 8.6 °F 50% 30.25 in 10.0 mi South 4.6 mph - N/A   Clear
6:11 PM 24.8 °F 17.9 °F 10.4 °F 54% 30.24 in 10.0 mi SSE 5.8 mph - N/A   Clear
6:31 PM 23.0 °F 13.9 °F 10.4 °F 59% 30.22 in 10.0 mi South 8.1 mph - N/A   Clear
6:51 PM 23.0 °F 14.7 °F 10.4 °F 59% 30.21 in 10.0 mi South 6.9 mph - N/A   Clear
7:11 PM 23.0 °F 15.8 °F 10.4 °F 59% 30.21 in 10.0 mi South 5.8 mph - N/A   Clear
7:31 PM 23.0 °F 13.9 °F 10.4 °F 59% 30.20 in 10.0 mi South 8.1 mph - N/A   Clear
7:51 PM 23.0 °F 15.8 °F 10.4 °F 59% 30.19 in 10.0 mi South 5.8 mph - N/A   Scattered Clouds
8:11 PM 23.0 °F 14.7 °F 10.4 °F 59% 30.17 in 10.0 mi SSE 6.9 mph - N/A   Scattered Clouds
8:31 PM 23.0 °F 13.9 °F 10.4 °F 59% 30.17 in 10.0 mi SSE 8.1 mph - N/A   Clear
8:51 PM 23.0 °F 13.9 °F 10.4 °F 59% 30.16 in 10.0 mi SSE 8.1 mph - N/A   Clear
9:11 PM 23.0 °F 13.9 °F 10.4 °F 59% 30.13 in 10.0 mi SSE 8.1 mph - N/A   Clear
9:31 PM 23.0 °F 13.1 °F 10.4 °F 59% 30.12 in 10.0 mi SSE 9.2 mph - N/A   Clear
9:51 PM 23.0 °F 13.1 °F 10.4 °F 59% 30.10 in 10.0 mi SSE 9.2 mph - N/A   Clear
10:11 PM 23.0 °F 13.1 °F 10.4 °F 59% 30.09 in 10.0 mi SSE 9.2 mph - N/A   Clear
10:31 PM 21.2 °F 11.7 °F 10.4 °F 63% 30.07 in 10.0 mi South 8.1 mph - N/A   Clear
10:51 PM 23.0 °F 13.1 °F 12.2 °F 63% 30.07 in 10.0 mi South 9.2 mph - N/A   Mostly Cloudy
11:11 PM 23.0 °F 12.4 °F 12.2 °F 63% 30.04 in 10.0 mi SSE 10.4 mph - N/A   Overcast
11:30 PM 23.0 °F 11.7 °F 12.2 °F 63% 30.04 in 10.0 mi South 11.5 mph 16.1 mph N/A   Overcast
11:51 PM 23.0 °F 11.1 °F 12.2 °F 63% 30.04 in 10.0 mi South 12.7 mph - N/A   Overcast